Home   Weather   Durango   Past weeks

Flag for USA Past Weather in Durango, Colorado, USA — Yesterday and Last 2 Weeks

Now
9 °F

Clear.


Feels Like: 1 °F
Forecast: 14 / 32 °F
Wind: 5 mph from North

Location: Durango-La Plata County Airport

Current Time: Jan 22, 2017 at 5:14:30 am

Latest Report: Jan 22, 2017 at 3:53 am


Visibility: 10 mi

Pressure: 30.13 "Hg (23.20 "Hg at 1989m altitude)

Humidity: 88%

Dew Point: 6 °F

Location of DurangoLocation

Past Weather in Durango — Graph

°F

Durango Temperature Yesterday

Maximum temperature yesterday: 30 °F (at 8:15 am)
Minimum temperature yesterday: 24 °F (at 11:53 pm)
Average temperature yesterday: 28 °F

High & Low Weather Summary for the Past Weeks

 TemperatureHumidityPressure
High50 °F (Jan 14, 12:53 pm)100% (Jan 17, 10:53 am)30.63 "Hg (Jan 17, 10:53 am)
Low5 °F (Jan 7, 6:53 am)42% (Jan 11, 12:53 pm)29.33 "Hg (Jan 21, 7:39 am)
Average32 °F82%30.00 "Hg
* Reported Jan 7 3:53 am — Jan 22 3:53 am, Durango, Weather by CustomWeather, © 2017

Note: Actual official high and low records may vary slightly from our data, if they occured in-between our weather recording intervals... More about our weather records

Advertising

Durango Weather History for the Previous 24 Hours

Scroll right to see more
 ConditionsComfort  
Time TempWeatherWind HumidityBarometerVisibility
3:53 am
Sun, Jan 22
9 °FClear.5 mph88%30.13 "Hg10 mi
2:53 am12 °FClear.3 mph88%30.09 "Hg10 mi
1:53 am17 °FClear.No wind80%30.03 "Hg10 mi
12:53 am21 °FClear.8 mph78%29.98 "Hg10 mi
11:53 pm
Sat, Jan 21
24 °FClear.7 mph71%29.94 "Hg10 mi
10:53 pm25 °FClear.13 mph75%29.91 "Hg10 mi
9:53 pm28 °FClear.17 mph72%29.84 "Hg10 mi
8:53 pm28 °FClear.10 mph75%29.79 "Hg10 mi
7:53 pm28 °FClear.18 mph85%29.75 "Hg10 mi
7:22 pm28 °FPassing clouds.13 mph81%29.67 "Hg10 mi
6:56 pm28 °FLight snow. Ice fog.18 mph85%29.65 "Hg2 mi
5:53 pm29 °FClear.16 mph79%29.65 "Hg10 mi
4:53 pm30 °FSunny.24 mph79%29.61 "Hg10 mi
3:53 pm30 °FSunny.21 mph79%29.57 "Hg10 mi
3:06 pm29 °FLight snow. Cloudy.20 mph89%29.49 "Hg8 mi
2:58 pm29 °FLight snow. Ice fog.18 mph89%29.49 "Hg3 mi
2:27 pm30 °FLight snow. Ice fog.14 mph85%29.47 "Hg1 mi
2:19 pm30 °FLight snow. Ice fog.20 mph85%29.47 "Hg1 mi
1:53 pm30 °FLight snow. Mostly cloudy.21 mph82%29.51 "Hg2 mi
1:41 pm30 °FLight snow. More clouds than sun.23 mph82%29.45 "Hg2 mi
12:53 pm30 °FLight snow. Mostly cloudy.23 mph79%29.48 "Hg9 mi
12:09 pm30 °FLight snow. Ice fog.18 mph85%29.42 "Hg4 mi
12:00 pm29 °FLight snow. Ice fog.18 mph89%29.42 "Hg2 mi
11:53 am29 °FLight snow. Ice fog.22 mph85%29.48 "Hg2 mi
11:22 am29 °FLight snow. Ice fog.26 mph89%29.41 "Hg1 mi
10:53 am29 °FSnow. Ice fog.20 mph89%29.46 "Hg1 mi
10:24 am29 °FSnow. Ice fog.20 mph93%29.39 "Hg0 mi
10:02 am29 °FSnow. Ice fog.13 mph93%29.38 "Hg0 mi
9:53 am29 °FSnow. Ice fog.10 mph93%29.43 "Hg0 mi
9:30 am29 °FHeavy snow. Ice fog.8 mph93%29.36 "Hg0 mi
9:10 am30 °FSnow. Ice fog.No wind89%29.35 "Hg1 mi
8:53 am29 °FHeavy snow. Ice fog.No wind93%29.39 "Hg0 mi
8:15 am30 °FHeavy snow. Ice fog.No wind89%29.34 "Hg0 mi
7:53 am29 °FHeavy snow. Ice fog.3 mph93%29.38 "Hg0 mi
7:39 am29 °FHeavy snow. Ice fog.5 mph93%29.33 "Hg0 mi
7:28 am29 °FLight snow. Ice fog.5 mph93%29.34 "Hg1 mi
6:58 am29 °FLight snow. Ice fog.3 mph89%29.35 "Hg1 mi
6:34 am28 °FLight snow. Ice fog.6 mph93%29.34 "Hg1 mi
6:17 am28 °FLight snow. Ice fog.7 mph93%29.34 "Hg1 mi
6:03 am28 °FLight snow. Ice fog.5 mph93%29.35 "Hg1 mi
5:53 am28 °FLight snow. Ice fog.5 mph93%29.40 "Hg1 mi
5:37 am28 °FLight snow. Ice fog.6 mph89%29.35 "Hg1 mi
5:22 am28 °FLight snow. Ice fog.3 mph89%29.35 "Hg4 mi
Weather by CustomWeather, © 2017

See weather overviewHow to use our weather pages